Location: Unspecified
(48.7670°N, 0.0000°E)
Time: 07:59:09
(UTC+00:00)

Altair - Pass Details

Date: 10 October 2020
Orbit: 1502 x 1682 km, 47.2° (Epoch: 20 October)

Event Time Altitude Azimuth Distance (km) Brightness Sun altitude
Rises 17:34:08 0° 289° (WNW) 4,919 11.5 -3.2°
Reaches altitude 10° 17:38:18 10° 275° (W) 3,941 11.4 -3.9°
Maximum altitude 17:45:08 21° 232° (SW) 3,149 10.0 -5.0°
Drops below altitude 10° 17:51:59 10° 188° (S) 3,925 9.8 -6.1°
Sets 17:56:10 0° 174° (S) 4,893 10.1 -6.8°
